Location: Allentsteig
(48.6833°N, 15.3167°E)
Time: 01:13:09
(UTC+00:00)

SJ-6B - Pass Details

Date: 18 September 2020
Orbit: 511 x 580 km, 97.6° (Epoch: 29 October)

Event Time Altitude Azimuth Distance (km) Brightness Sun altitude
Exits shadow 19:22:14 17° 211° (SSW) 1,330 4.7 -22.4°
Maximum altitude 19:24:26 31° 264° (W) 916 4.4 -22.8°
Drops below altitude 10° 19:27:50 10° 328° (NNW) 1,753 6.3 -23.2°
Sets 19:30:07 0° 339° (NNW) 2,653 7.1 -23.6°
